Aeroporto :
LOGIN :

Iscrizione | Disclaimer

   EN    FR    IT 

 










Sommario :    VFR   VFR Marginale   IFR   IFR Intensivo   IFR Molto Intensivo
Visibilità : 
Base nubi : 
>= 8 km
>= 3000ft
5 / 8 km
1000 / 3000 ft
1500m / 5 km
500 / 1000 ft
800 / 1500m
200 / 500 ft
< 800m
< 200 ft
Simboli :   Temporali  Nebbia  Neve Forte  Precipitazioni Forti  Vento > 20 kt
SIGMETs :   Varie  Temporali  Ghiacco  Turbolenza  Onda orograficha  Ceneri Vulcaniche






- Altitudine del aeroporto : 74 ft
- Codice IATA : NDZ


ETMN - Cuxhaven Nordholz Sea AB

ULTIMO METAR :
  • 181220Z 04009KT 9999 FEW008 27/19 Q1013 BLU+BLU+

METARs OBSOLETI :
  • 181120Z 03013KT 9999 FEW008 26/19 Q1013 BLU+BLU+
  • 181020Z 01011KT 9999 FEW008 24/18 Q1014 BLU+BLU+
  • 180950Z 02012KT 9999 FEW008 23/18 Q1014 BLU+BLU+

TAF TAF ETMN
Valido dal 18 a 11 ore il 18 a 20 ore UTC


181020Z 1811/1820 36012G22KT 9999 NSW FEW010 SCT060
TEMPO 1814/1820 02015G25KT 5000 SHRA SCT020 BKN040CB



MetMap, La meteo Aeronautica in un colpo d'occhio ! - Copyright ORBIFLY Dicembre 2007 - Disclaimer

ORBIFLY MET'MAP TEAM :

Programmazione e sviluppo : Alexandra Zaïnal
Concezione : Baudouin d'Aumeries
Aiuto per la programmazione : Marc-Olivier Méhu
Supporto tecnico e logistico : Manuel Goepfert
Aiuto per la traduzione : Arnaldo La Scala

Contatto : metmap@orbifly.com




FONTI E CREDITI :

   NOAA